Location: Innerarity Island Observatory
(30.3139°N, 87.4867°W)
Time: 11:40:07
(UTC-06:00)

Amateur Radio Satellites - All Passes

Search period start: 03 December 2016 11:10
Search period end: 04 December 2016 11:10
Location: Innerarity Island Observatory, 30.3139°N, 87.4867°W

Satellite Date Start Highest point End Downlink Frequencies (MHz)
Time Altitude Azimuth
SPROUT 03 Dec 11:14:36 11:17:31 18° 95° (E) 11:20:26 437.525
AISAT 03 Dec 11:15:58 11:20:00 33° 98° (E) 11:24:00 437.250
POPSAT HIP 1 03 Dec 11:22:04 11:26:01 37° 261° (W) 11:30:00 437.405
JAS-2 03 Dec 11:30:43 11:36:52 33° 261° (W) 11:42:25 435.910
Gurwin Techsat 1B 03 Dec 11:48:44 11:50:51 12° 65° (ENE) 11:52:59 435.225
CUBEBUG 1 03 Dec 11:50:12 11:54:35 61° 285° (WNW) 11:58:57 437.445
50 SAT 03 Dec 11:52:22 11:55:55 82° 100° (E) 11:59:29 437.505
VELOX 1 03 Dec 11:52:44 11:57:13 89° 87° (E) 12:01:40 145.980
JUGNU 03 Dec 12:02:53 12:07:36 24° 170° (S) 12:12:18 437.505
Cosmos 2499 03 Dec 12:08:40 12:17:16 90° 266° (W) 12:25:11 435.465 / 435.565
PCSat 03 Dec 12:11:35 12:16:35 38° 299° (WNW) 12:21:37 145.827
Oscar 19 03 Dec 12:14:28 12:19:22 49° 73° (ENE) 12:24:18 437.125/150
DX 1 03 Dec 12:16:33 12:20:57 87° 103° (ESE) 12:25:19 434.975-435.025
BUGSAT 1 03 Dec 12:17:37 12:21:06 25° 263° (W) 12:24:36 437.445
GONETS M04 03 Dec 12:19:40 12:28:24 85° 265° (W) 12:37:09
AO-85 03 Dec 12:29:01 12:32:31 33° 248° (WSW) 12:36:01 145.980
UKube-1 03 Dec 12:29:53 12:34:14 89° 283° (WNW) 12:38:34 .
ESTCUBE 1 03 Dec 12:34:41 12:36:21 12° 293° (WNW) 12:38:01 437.505/2401.250
TISAT 1 03 Dec 12:46:51 12:50:39 32° 98° (E) 12:54:25 437.305
SPROUT 03 Dec 12:49:45 12:53:24 27° 288° (WNW) 12:57:00 437.525
AISAT 03 Dec 12:53:16 12:56:09 17° 291° (WNW) 12:59:01 437.250
AO-7 03 Dec 13:00:09 13:05:01 17° 57° (ENE) 13:09:53 29.400- 29.500
ITUPSAT 1 03 Dec 13:19:17 13:21:13 12° 94° (E) 13:23:09 437.325
Gurwin Techsat 1B 03 Dec 13:24:56 13:30:11 64° 258° (WSW) 13:35:28 435.225
SRMSAT 03 Dec 13:36:26 13:40:24 18° 165° (SSE) 13:44:22 437.500
BEESAT 3 03 Dec 13:49:08 13:51:17 14° 53° (NE) 13:53:25 437.485
JUGNU 03 Dec 13:51:02 13:56:08 30° 180° (S) 14:01:13 437.505
Oscar 19 03 Dec 13:56:17 13:58:52 14° 266° (W) 14:01:28 437.125/150
Cosmos 2499 03 Dec 14:05:56 14:08:56 12° 282° (WNW) 14:11:53 435.465 / 435.565
BEESAT 2 03 Dec 14:12:25 14:13:45 11° 52° (NE) 14:15:05 435.950
ITAMSAT 1 03 Dec 14:14:57 14:20:10 85° 77° (ENE) 14:25:25 435.822/435.867
GONETS M04 03 Dec 14:21:19 14:23:51 12° 281° (W) 14:26:24
AUBIESAT-1 03 Dec 14:23:10 14:27:46 76° 106° (ESE) 14:32:07 437.475
TISAT 1 03 Dec 14:23:31 14:25:57 15° 291° (WNW) 14:28:22 437.305
SWISSCUBE 03 Dec 14:24:29 14:29:14 88° 107° (ESE) 14:33:59 437.505
MOZHAYETS 4 03 Dec 14:25:52 14:28:31 15° 95° (E) 14:31:10
BEESAT 03 Dec 14:28:51 14:33:37 87° 103° (ESE) 14:38:22 436.000
M-CUBED/EXP-1 PRIME 03 Dec 14:32:47 14:37:25 66° 289° (WNW) 14:41:51 437.505
AO-7 03 Dec 14:48:25 14:56:43 85° 254° (WSW) 15:05:04 29.400- 29.500
ITUPSAT 1 03 Dec 14:54:38 14:59:13 48° 286° (WNW) 15:03:46 437.325
ISS 03 Dec 15:05:43 15:07:15 13° 125° (SE) 15:08:46 145.825
KKS-1 03 Dec 15:16:59 15:20:34 23° 97° (E) 15:24:08 437.445
BRITE-PL 03 Dec 15:20:38 15:22:25 12° 67° (ENE) 15:24:14 437.365/2234.400
SRMSAT 03 Dec 15:24:04 15:29:03 28° 175° (S) 15:34:01 437.500
BEESAT 3 03 Dec 15:25:21 15:29:01 36° 247° (WSW) 15:32:39 437.485
HORYU 2 03 Dec 15:25:31 15:27:41 13° 68° (ENE) 15:29:50 437.375
STARS 03 Dec 15:32:12 15:34:40 15° 95° (E) 15:37:07 437.465
JUGNU 03 Dec 15:40:00 15:44:40 24° 190° (S) 15:49:18 437.505
RS-15 03 Dec 15:40:21 15:51:10 34° 48° (NE) 16:01:37 29.354- 29.394
O/OREOS (USA 219) 03 Dec 15:44:54 15:49:23 58° 106° (ESE) 15:53:52 437.305
BEESAT 2 03 Dec 15:47:54 15:51:47 49° 246° (WSW) 15:55:39 435.950
CUBESAT XI-V 03 Dec 15:56:45 16:00:18 21° 96° (E) 16:03:50 437.345
MOZHAYETS 4 03 Dec 16:01:35 16:05:44 36° 287° (WNW) 16:09:53
NOAA 15 03 Dec 16:03:38 16:05:36 12° 65° (ENE) 16:07:34 137.62
Cosmos 2491 03 Dec 16:27:30 16:29:54 11° 67° (ENE) 16:32:18 435.465 / 435.565
ISS 03 Dec 16:40:23 16:43:27 37° 318° (NW) 16:46:32 145.825
GOMX 1 03 Dec 16:46:35 16:50:49 52° 75° (ENE) 16:55:22 467.674
AO-7 03 Dec 16:47:30 16:50:15 12° 267° (W) 16:53:01 29.400- 29.500
NOAA 18 03 Dec 16:53:08 16:57:27 24° 68° (ENE) 17:01:48 137.9125
KKS-1 03 Dec 16:53:26 16:56:58 23° 289° (WNW) 17:00:29 437.445
BRITE-PL 03 Dec 16:56:36 17:00:28 38° 262° (W) 17:04:32 437.365/2234.400
HORYU 2 03 Dec 16:59:32 17:03:48 43° 260° (W) 17:08:05 437.375
STARS 03 Dec 17:07:02 17:11:04 35° 287° (WNW) 17:15:04 437.465
CUTE-I 03 Dec 17:07:19 17:12:30 52° 74° (ENE) 17:17:43 437.470
DOVE 4 03 Dec 17:11:36 17:15:52 39° 73° (ENE) 17:20:24 437.250
SRMSAT 03 Dec 17:12:46 17:17:44 28° 185° (S) 17:22:44 437.500
CINEMA 3 03 Dec 17:18:04 17:18:27 10° 65° (ENE) 17:18:50 145.822/145.860
O/OREOS (USA 219) 03 Dec 17:28:24 17:29:06 10° 300° (WNW) 17:29:50 437.305
JUGNU 03 Dec 17:30:32 17:33:05 13° 198° (SSW) 17:35:38 437.505
Cubesat XI-IV 03 Dec 17:32:06 17:37:29 88° 253° (WSW) 17:42:53 437.490
CUBESAT XI-V 03 Dec 17:33:39 17:37:34 28° 288° (WNW) 17:41:31 437.345
NOAA 15 03 Dec 17:39:35 17:44:46 64° 258° (WSW) 17:49:58 137.62
LilacSat-2 03 Dec 17:44:57 17:48:40 45° 261° (W) 17:52:23 437.200
AIST 2 03 Dec 17:49:33 17:53:46 70° 63° (ENE) 17:57:56 435.215
RS-15 03 Dec 17:52:19 18:04:25 67° 249° (WSW) 18:16:01 29.354- 29.394
CUTE 1.7 + AOD 2 03 Dec 18:11:23 18:14:36 22° 72° (ENE) 18:17:49 437.475
HO-68 03 Dec 18:12:59 18:19:35 42° 69° (ENE) 18:26:12 435.675
Cosmos 2491 03 Dec 18:19:12 18:27:57 81° 84° (E) 18:36:39 435.465 / 435.565
STRAND 1 03 Dec 18:24:43 18:29:00 27° 97° (E) 18:33:15 437.568
CANX-2 03 Dec 18:27:56 18:31:54 41° 75° (ENE) 18:35:53 2200.000
NOAA 18 03 Dec 18:32:51 18:37:51 35° 261° (W) 18:42:53 137.9125
YUBILEINY 03 Dec 18:40:04 18:48:30 58° 91° (E) 18:56:59 435.215
UWE-3 03 Dec 18:41:54 18:44:01 13° 68° (ENE) 18:46:09 435.000/436.395/437.385
AAUSAT CUBESAT 2 03 Dec 18:48:54 18:51:49 19° 71° (ENE) 18:54:43 437.432
CUTE-I 03 Dec 18:49:53 18:52:45 15° 266° (W) 18:55:37 437.470
CINEMA 3 03 Dec 18:50:05 18:54:51 69° 260° (W) 18:59:49 145.822/145.860
DOVE 4 03 Dec 18:51:02 18:53:43 15° 268° (W) 18:56:29 437.250
SEEDS 03 Dec 18:59:08 19:03:13 56° 76° (ENE) 19:07:18 437.485
SRMSAT 03 Dec 19:02:21 19:06:22 19° 194° (SSW) 19:10:25 437.500
AIST 1 03 Dec 19:13:44 19:17:34 33° 91° (E) 19:21:27
SO-50 03 Dec 19:14:03 19:18:01 26° 111° (ESE) 19:21:56 436.795
COMPASS 1 03 Dec 19:14:58 19:19:01 57° 76° (ENE) 19:23:03 437.405
CUBEBUG 2 03 Dec 19:26:52 19:31:36 73° 77° (ENE) 19:36:20 437.445
ZACube-1 03 Dec 19:27:33 19:31:19 26° 72° (ENE) 19:35:04 437.345
Cosmos 2504 03 Dec 19:36:30 19:44:27 65° 92° (E) 19:52:59 435.465 / 435.565
FUNcube-1 03 Dec 19:36:40 19:40:38 30° 73° (ENE) 19:44:35 145.935
CUTE 1.7 + AOD 2 03 Dec 19:46:59 19:50:16 22° 264° (W) 19:53:34 437.475
HO-68 03 Dec 20:01:15 20:07:17 29° 262° (W) 20:13:21 435.675
STRAND 1 03 Dec 20:03:50 20:08:01 26° 290° (WNW) 20:12:11 437.568
PRISM 03 Dec 20:03:58 20:06:37 16° 96° (E) 20:09:14 437.425
CANX-2 03 Dec 20:06:35 20:07:52 11° 267° (W) 20:09:08 2200.000
Oscar 11 03 Dec 20:10:34 20:14:52 75° 77° (ENE) 20:19:11 145.826/435.025
DELFI C3 03 Dec 20:11:27 20:14:27 21° 72° (ENE) 20:17:27 145.870
UWE-3 03 Dec 20:15:30 20:20:00 48° 261° (W) 20:24:31 435.000/436.395/437.385
Cosmos 2491 03 Dec 20:19:11 20:23:37 15° 279° (W) 20:28:05 435.465 / 435.565
AAUSAT CUBESAT 2 03 Dec 20:23:46 20:27:04 23° 263° (W) 20:30:23 437.432
CUSAT 1 03 Dec 20:27:49 20:31:35 65° 83° (E) 20:36:34 437.405
YUBILEINY 03 Dec 20:39:04 20:45:39 24° 287° (WNW) 20:52:20 435.215
DANDE 03 Dec 20:48:35 20:50:31 16° 82° (E) 20:52:41 436.750
AIST 1 03 Dec 20:53:03 20:55:13 14° 284° (WNW) 20:57:24
SO-50 03 Dec 20:54:17 20:58:21 27° 304° (WNW) 21:02:23 436.795
ZACube-1 03 Dec 21:03:55 21:07:28 22° 264° (W) 21:11:01 437.345
PCSat 03 Dec 21:04:46 21:10:02 50° 63° (ENE) 21:15:16 145.827
FUNcube-1 03 Dec 21:13:37 21:16:48 19° 265° (W) 21:20:00 145.935
HUMSAT D 03 Dec 21:18:52 21:23:07 84° 81° (E) 21:27:21 437.325/437.525
UNISAT 6 03 Dec 21:21:54 21:25:39 28° 97° (E) 21:29:20 437.425
Cosmos 2504 03 Dec 21:32:37 21:38:26 21° 289° (WNW) 21:44:33 435.465 / 435.565
PRISM 03 Dec 21:38:17 21:41:51 28° 288° (WNW) 21:45:26 437.425
DELFI C3 03 Dec 21:46:20 21:49:07 19° 264° (W) 21:51:55 145.870
ESTCUBE 1 03 Dec 21:50:10 21:53:37 22° 71° (ENE) 21:57:05 437.505/2401.250
TIGRISAT 03 Dec 21:52:17 21:56:38 63° 101° (E) 22:00:52 435.000
ANTELSAT 03 Dec 21:53:00 21:57:23 70° 101° (E) 22:01:38 437.575/2403.000
AISAT 03 Dec 22:09:01 22:11:29 15° 68° (ENE) 22:13:57 437.250
50 SAT 03 Dec 22:23:51 22:25:29 13° 70° (ENE) 22:27:07 437.505
DANDE 03 Dec 22:32:12 22:33:02 11° 264° (W) 22:33:54 436.750
NANOSAT C BR1 03 Dec 22:34:27 22:37:04 16° 95° (E) 22:39:40 145.865
QB50P2 03 Dec 22:37:12 22:40:23 21° 96° (E) 22:43:33 145.880/145.840
POLYITAN 1 03 Dec 22:37:55 22:40:59 19° 96° (E) 22:44:02 437.675
CUBEBUG 1 03 Dec 22:40:08 22:44:20 51° 75° (ENE) 22:48:34 437.445
VELOX 1 03 Dec 22:44:20 22:48:21 37° 73° (ENE) 22:52:25 145.980
JAS-2 03 Dec 22:45:25 22:50:18 40° 100° (E) 22:55:26 435.910
PCSat 03 Dec 22:49:46 22:52:56 16° 256° (WSW) 22:56:06 145.827
Cosmos 2499 03 Dec 22:50:03 22:52:55 12° 78° (ENE) 22:55:49 435.465 / 435.565
QB50P1 03 Dec 22:51:19 22:54:59 28° 98° (E) 22:58:38 145.935-145.965
DUCHIFAT 1 03 Dec 22:57:09 23:00:47 28° 97° (E) 23:04:24 145.980
UNISAT 6 03 Dec 22:59:06 23:02:06 18° 290° (WNW) 23:05:04 437.425
DX 1 03 Dec 23:06:28 23:10:23 34° 73° (ENE) 23:14:19 434.975-435.025
POPSAT HIP 1 03 Dec 23:12:11 23:16:19 52° 100° (E) 23:20:25 437.405
ISS 03 Dec 23:13:25 23:15:27 15° 36° (NE) 23:17:29 145.825
PHONESAT 2.4 03 Dec 23:14:17 23:15:57 15° 142° (SE) 23:17:37 2401.200-2431.200
UKube-1 03 Dec 23:18:45 23:22:39 34° 73° (ENE) 23:26:34 .
GONETS M04 03 Dec 23:19:46 23:25:51 21° 83° (E) 23:31:53
ESTCUBE 1 03 Dec 23:26:37 23:30:15 24° 263° (W) 23:33:54 437.505/2401.250
TISAT 1 03 Dec 23:34:44 23:36:25 12° 68° (ENE) 23:38:06 437.305
SPROUT 03 Dec 23:36:27 23:40:43 79° 258° (WSW) 23:45:02 437.525
AISAT 03 Dec 23:43:30 23:47:33 36° 261° (W) 23:51:40 437.250
50 SAT 03 Dec 23:55:37 23:58:30 24° 262° (W) 00:01:25 437.505
BUGSAT 1 04 Dec 00:04:15 00:08:26 71° 101° (E) 00:12:31 437.445
NANOSAT C BR1 04 Dec 00:09:06 00:12:46 29° 288° (WNW) 00:16:24 145.865
QB50P2 04 Dec 00:12:41 00:16:03 23° 289° (WNW) 00:19:24 145.880/145.840
POLYITAN 1 04 Dec 00:13:15 00:16:40 24° 288° (WNW) 00:20:04 437.675
VELOX 1 04 Dec 00:22:35 00:24:53 14° 266° (W) 00:27:11 145.980
QB50P1 04 Dec 00:27:44 00:30:28 17° 290° (WNW) 00:33:13 145.935-145.965
JAS-2 04 Dec 00:31:42 00:35:07 18° 291° (WNW) 00:38:38 435.910
Oscar 19 04 Dec 00:32:06 00:36:33 28° 97° (E) 00:40:59 437.125/150
DUCHIFAT 1 04 Dec 00:33:29 00:36:12 17° 290° (WNW) 00:38:55 145.980
Cosmos 2499 04 Dec 00:36:14 00:44:32 85° 96° (E) 00:53:23 435.465 / 435.565
DX 1 04 Dec 00:44:11 00:46:36 15° 265° (W) 00:49:02 434.975-435.025
PHONESAT 2.4 04 Dec 00:48:29 00:51:02 42° 334° (NNW) 00:53:36 2401.200-2431.200
ISS 04 Dec 00:48:58 00:52:05 39° 230° (SW) 00:55:10 145.825
UKube-1 04 Dec 00:56:25 00:58:43 14° 265° (W) 01:01:03 .
AO-85 04 Dec 00:57:23 01:01:18 22° 111° (ESE) 01:05:03 145.980
AUBIESAT-1 04 Dec 01:03:25 01:06:59 33° 68° (ENE) 01:10:47 437.475
TISAT 1 04 Dec 01:07:37 01:11:37 41° 261° (W) 01:15:39 437.305
M-CUBED/EXP-1 PRIME 04 Dec 01:13:12 01:16:59 57° 71° (ENE) 01:21:08 437.505
GONETS M04 04 Dec 01:13:14 01:21:51 63° 278° (W) 01:30:28
SWISSCUBE 04 Dec 01:25:04 01:29:41 52° 74° (ENE) 01:34:18 437.505
BEESAT 04 Dec 01:29:23 01:34:00 51° 74° (ENE) 01:38:37 436.000
Gurwin Techsat 1B 04 Dec 01:46:55 01:52:16 83° 104° (ESE) 01:57:34 435.225
ITUPSAT 1 04 Dec 01:55:10 01:59:58 82° 258° (WSW) 02:04:46 437.325
O/OREOS (USA 219) 04 Dec 02:00:47 02:05:02 42° 68° (ENE) 02:09:15 437.305
Oscar 19 04 Dec 02:11:28 02:15:41 26° 290° (WNW) 02:19:56 437.125/150
KKS-1 04 Dec 02:11:40 02:12:59 11° 67° (ENE) 02:14:17 437.445
PHONESAT 2.4 04 Dec 02:25:36 02:26:44 12° 349° (N) 02:27:52 2401.200-2431.200
ITAMSAT 1 04 Dec 02:33:47 02:38:48 48° 101° (E) 02:43:45 435.822/435.867
Cosmos 2499 04 Dec 02:34:00 02:38:40 16° 291° (WNW) 02:43:29 435.465 / 435.565
AO-85 04 Dec 02:37:03 02:41:34 33° 301° (WNW) 02:45:49 145.980
AUBIESAT-1 04 Dec 02:39:25 02:41:29 14° 263° (W) 02:43:39 437.475
AO-7 04 Dec 02:56:45 03:04:46 48° 102° (ESE) 03:12:43 29.400- 29.500
CUBESAT XI-V 04 Dec 02:56:51 02:58:02 11° 67° (ENE) 02:59:13 437.345
MOZHAYETS 4 04 Dec 02:56:56 03:01:32 78° 257° (WSW) 03:06:08
SWISSCUBE 04 Dec 03:06:01 03:07:39 12° 266° (W) 03:09:18 437.505
BEESAT 04 Dec 03:10:15 03:11:58 12° 266° (W) 03:13:41 436.000
O/OREOS (USA 219) 04 Dec 03:42:15 03:43:57 12° 261° (W) 03:45:40 437.305
KKS-1 04 Dec 03:44:42 03:49:01 51° 260° (W) 03:53:23 437.445
STARS 04 Dec 03:57:08 04:01:32 86° 257° (WSW) 04:05:59 437.465
PHONESAT 2.4 04 Dec 04:02:16 04:02:46 10° 6° (N) 04:03:17 2401.200-2431.200
ITAMSAT 1 04 Dec 04:14:48 04:17:47 16° 294° (WNW) 04:20:46 435.822/435.867
CUBESAT XI-V 04 Dec 04:30:24 04:34:52 54° 260° (W) 04:39:22 437.345
AO-7 04 Dec 04:50:01 04:57:07 32° 297° (WNW) 05:04:13 29.400- 29.500
GOMX 1 04 Dec 04:53:46 04:58:32 30° 96° (E) 05:03:16 467.674
HORYU 2 04 Dec 04:55:54 05:00:15 55° 101° (E) 05:04:33 437.375
YUBILEINY 04 Dec 04:58:46 05:05:04 21° 72° (ENE) 05:11:18 435.215
BRITE-PL 04 Dec 05:05:14 05:10:43 85° 283° (WNW) 05:16:25 437.365/2234.400
BEESAT 3 04 Dec 05:09:40 05:13:26 53° 299° (WNW) 05:17:17 437.485
DOVE 4 04 Dec 05:16:52 05:20:39 20° 94° (E) 05:24:20 437.250
Cosmos 2491 04 Dec 05:20:31 05:25:39 17° 82° (E) 05:30:45 435.465 / 435.565
NOAA 18 04 Dec 05:21:36 05:24:53 16° 95° (E) 05:28:08 137.9125
LilacSat-2 04 Dec 05:24:09 05:27:22 26° 97° (E) 05:30:33 437.200
SO-50 04 Dec 05:30:23 05:34:48 56° 61° (ENE) 05:39:09 436.795
CUTE-I 04 Dec 05:30:31 05:35:18 33° 98° (E) 05:40:02 437.470
BEESAT 2 04 Dec 05:33:42 05:37:36 69° 299° (WNW) 05:41:33 435.950
STRAND 1 04 Dec 05:35:22 05:39:18 22° 69° (ENE) 05:43:12 437.568
PHONESAT 2.4 04 Dec 05:36:16 05:38:36 26° 22° (NNE) 05:40:56 2401.200-2431.200
Cosmos 2504 04 Dec 05:38:36 05:43:54 17° 69° (ENE) 05:49:00 435.465 / 435.565
Cubesat XI-IV 04 Dec 05:55:19 06:00:36 61° 101° (ESE) 06:05:50 437.490
RS-15 04 Dec 05:56:41 06:06:28 34° 104° (ESE) 06:16:38 29.354- 29.394
NOAA 15 04 Dec 06:00:24 06:05:41 79° 103° (ESE) 06:10:59 137.62
CANX-2 04 Dec 06:20:52 06:22:06 11° 93° (E) 06:23:19 2200.000
GOMX 1 04 Dec 06:31:48 06:36:24 28° 289° (WNW) 06:40:59 467.674
HORYU 2 04 Dec 06:35:50 06:36:14 10° 294° (WNW) 06:36:39 437.375
SEEDS 04 Dec 06:49:59 06:52:19 15° 95° (E) 06:54:39 437.485
CINEMA 3 04 Dec 06:51:02 06:55:37 46° 99° (E) 06:59:59 145.822/145.860
DOVE 4 04 Dec 06:53:30 06:58:21 38° 287° (WNW) 07:03:04 437.250
YUBILEINY 04 Dec 06:53:40 07:02:23 66° 268° (W) 07:11:05 435.215
LilacSat-2 04 Dec 06:59:22 07:01:21 14° 290° (WNW) 07:03:22 437.200
NOAA 18 04 Dec 07:00:23 07:05:43 50° 287° (WNW) 07:11:00 137.9125
AIST 1 04 Dec 07:03:21 07:07:46 83° 84° (E) 07:12:10
COMPASS 1 04 Dec 07:04:48 07:07:02 14° 95° (E) 07:09:14 437.405
CUTE-I 04 Dec 07:10:59 07:15:04 23° 291° (WNW) 07:19:10 437.470
PHONESAT 2.4 04 Dec 07:11:30 07:13:50 27° 215° (SW) 07:16:08 2401.200-2431.200
Cosmos 2491 04 Dec 07:12:39 07:21:26 75° 276° (W) 07:30:13 435.465 / 435.565
STRAND 1 04 Dec 07:13:38 07:18:13 33° 262° (W) 07:22:48 437.568
CUBEBUG 2 04 Dec 07:24:37 07:28:02 22° 96° (E) 07:31:21 437.445
Cosmos 2504 04 Dec 07:29:24 07:38:09 78° 267° (W) 07:46:21 435.465 / 435.565
HO-68 04 Dec 07:33:46 07:40:59 75° 104° (ESE) 07:48:10 435.675
CUTE 1.7 + AOD 2 04 Dec 07:36:20 07:40:33 85° 282° (WNW) 07:44:46 437.475
Cubesat XI-IV 04 Dec 07:37:40 07:40:05 13° 295° (WNW) 07:42:29 437.490
AIST 2 04 Dec 07:41:21 07:45:21 58° 114° (ESE) 07:49:25 435.215
CANX-2 04 Dec 07:54:06 07:58:03 41° 285° (WNW) 08:02:02 2200.000
Oscar 11 04 Dec 08:04:13 08:07:29 21° 96° (E) 08:10:44 145.826/435.025
RS-15 04 Dec 08:06:44 08:18:09 59° 302° (WNW) 08:30:12 29.354- 29.394
AAUSAT CUBESAT 2 04 Dec 08:10:30 08:14:39 79° 102° (ESE) 08:18:47 437.432
UWE-3 04 Dec 08:11:04 08:15:16 52° 100° (E) 08:19:19 435.000/436.395/437.385
UNISAT 6 04 Dec 08:16:06 08:18:36 14° 68° (ENE) 08:21:06 437.425
PRISM 04 Dec 08:21:07 08:25:10 89° 64° (ENE) 08:29:15 437.425
SEEDS 04 Dec 08:24:18 08:28:01 31° 286° (WNW) 08:31:43 437.485
CINEMA 3 04 Dec 08:29:53 08:32:13 14° 293° (WNW) 08:34:31 145.822/145.860
COMPASS 1 04 Dec 08:38:53 08:42:35 32° 286° (WNW) 08:46:18 437.405
TIGRISAT 04 Dec 08:45:04 08:49:05 29° 72° (ENE) 08:53:06 435.000
ANTELSAT 04 Dec 08:45:51 08:49:58 31° 73° (ENE) 08:54:06 437.575/2403.000
ZACube-1 04 Dec 08:57:02 09:01:14 69° 283° (WNW) 09:05:21 437.345
CUBEBUG 2 04 Dec 09:01:08 09:04:30 22° 289° (WNW) 09:07:47 437.445
FUNcube-1 04 Dec 09:06:03 09:10:11 57° 284° (WNW) 09:14:14 145.935
HUMSAT D 04 Dec 09:08:47 09:11:45 19° 96° (E) 09:14:42 437.325/437.525
Cosmos 2491 04 Dec 09:19:22 09:19:37 10° 294° (WNW) 09:19:51 435.465 / 435.565
HO-68 04 Dec 09:23:40 09:27:53 17° 299° (WNW) 09:32:06 435.675
AIST 2 04 Dec 09:23:41 09:24:09 10° 309° (NW) 09:24:39 435.215
CUSAT 1 04 Dec 09:25:56 09:29:46 62° 277° (W) 09:32:48 437.405
DELFI C3 04 Dec 09:27:46 09:31:45 80° 100° (E) 09:35:44 145.870
Cosmos 2504 04 Dec 09:29:23 09:29:54 10° 283° (WNW) 09:30:26 435.465 / 435.565
Oscar 11 04 Dec 09:40:04 09:43:29 24° 288° (WNW) 09:46:55 145.826/435.025
QB50P1 04 Dec 09:40:30 09:41:38 11° 68° (ENE) 09:42:46 145.935-145.965
DUCHIFAT 1 04 Dec 09:45:59 09:46:51 11° 67° (ENE) 09:47:43 145.980
DANDE 04 Dec 09:49:19 09:54:48 54° 97° (E) 09:58:56 436.750
UNISAT 6 04 Dec 09:50:25 09:54:53 44° 261° (W) 09:59:22 437.425
POPSAT HIP 1 04 Dec 09:59:44 10:02:47 19° 70° (ENE) 10:05:50 437.405
PCSat 04 Dec 10:00:03 10:02:50 14° 104° (ESE) 10:05:37 145.827
JUGNU 04 Dec 10:00:55 10:04:01 14° 162° (SSE) 10:07:06 437.505
TIGRISAT 04 Dec 10:22:09 10:25:40 21° 264° (W) 10:29:14 435.000
ANTELSAT 04 Dec 10:23:16 10:26:38 19° 265° (W) 10:29:59 437.575/2403.000
RS-15 04 Dec 10:27:23 10:34:00 16° 328° (NNW) 10:40:45 29.354- 29.394
JAS-2 04 Dec 10:34:55 10:41:53 86° 73° (ENE) 10:47:59 435.910
CUBEBUG 1 04 Dec 10:35:40 10:38:17 15° 95° (E) 10:40:53 437.445
Cosmos 2499 04 Dec 10:36:41 10:42:57 22° 72° (ENE) 10:48:52 435.465 / 435.565
VELOX 1 04 Dec 10:42:18 10:43:38 11° 94° (E) 10:44:58 145.980
HUMSAT D 04 Dec 10:44:04 10:47:14 22° 288° (WNW) 10:50:24 437.325/437.525
BUGSAT 1 04 Dec 10:48:41 10:51:58 22° 71° (ENE) 10:55:17 437.445
NANOSAT C BR1 04 Dec 10:54:29 10:58:44 89° 266° (W) 11:03:01 145.865
QB50P2 04 Dec 10:58:20 11:02:35 68° 259° (WSW) 11:06:52 145.880/145.840
POLYITAN 1 04 Dec 10:58:54 11:03:10 72° 258° (WSW) 11:07:28 437.675
